Tracking 35048 objects as of 19-Aug-2026
HD Live streaming from Space Station
objects crossing your sky now

GALAXY 32

Track GALAXY 32 now!
GALAXY 32 is classified as:


NORAD ID: 54244
Int'l Code: 2022-153B
Launch date: November 12, 2022
Source: United States (US)
Launch site: AIR FORCE EASTERN TEST RANGE (AFETR)
Your satellite tracking list
Your tracking list is empty




NASA's NSSDC Master Catalog

Two Line Element Set (TLE):
1 54244U 22153B   26230.47504191  .00000000  00000-0  00000-0 0  9996
2 54244   0.0198  87.1600 0000894 348.7234 330.9736  1.00269469 13768
Source of the keplerian elements: AFSPC